CFG5RM LEBL-EDDF

Flight info

Callsign CFG5RM
Flight time N/A
Altitude 36000
Route DALIN DCT PIVUS DCT DIBER DCT ADITA DCT MAXIR DCT LUSOL DCT BODRU DCT OKTET DCT IRMAR DCT KINES DCT VANAS DCT ESOKO DCT GODRA/N0449F350 DCT LADOL/N0452F360 T163 EMPAX EMPAX5B
Aircraft A320/M-SDE3FGHIRWY/LB1

Departure

Time N/A
Airport Josep Tarradellas Barcelona-El Prat Airport (LEBL)

Arrival

Time 2026-05-07 15:06
Airport Frankfurt Main Airport (EDDF)
Time Latitude Longitude Altitude Speed Heading
2026-05-07 14:11 44.69281 6.71488 35976 ft 482 kts 22°
2026-05-07 14:11 44.72301 6.73614 35974 ft 482 kts 22°
2026-05-07 14:12 44.78405 6.77383 35978 ft 475 kts 11°
2026-05-07 14:12 44.84839 6.78714 35974 ft 462 kts 354°
2026-05-07 14:13 44.91239 6.78301 35975 ft 460 kts 352°
2026-05-07 14:13 44.97642 6.77869 35972 ft 460 kts 352°
2026-05-07 14:14 45.03996 6.77450 35981 ft 461 kts 352°
2026-05-07 14:14 45.10403 6.77035 35987 ft 461 kts 352°
2026-05-07 14:15 45.16808 6.76618 35995 ft 460 kts 352°
2026-05-07 14:15 45.23202 6.76194 35998 ft 460 kts 352°
2026-05-07 14:16 45.29581 6.75769 36000 ft 459 kts 352°
2026-05-07 14:16 45.35959 6.75342 36001 ft 458 kts 352°
2026-05-07 14:17 45.42351 6.75144 36001 ft 464 kts
2026-05-07 14:17 45.48672 6.77354 35999 ft 476 kts 19°
2026-05-07 14:18 45.54498 6.81940 35996 ft 480 kts 26°
2026-05-07 14:18 45.60265 6.86736 35990 ft 479 kts 26°
2026-05-07 14:19 45.65995 6.91504 35989 ft 480 kts 26°
2026-05-07 14:19 45.71758 6.96312 35987 ft 480 kts 26°
2026-05-07 14:20 45.77526 7.01129 35974 ft 479 kts 26°
2026-05-07 14:20 45.83284 7.05955 35976 ft 479 kts 26°
2026-05-07 14:21 45.89036 7.10787 35977 ft 479 kts 26°
2026-05-07 14:21 45.94784 7.15635 35980 ft 479 kts 26°
2026-05-07 14:22 46.00520 7.20496 36003 ft 479 kts 26°
2026-05-07 14:22 46.06255 7.25359 35997 ft 478 kts 26°
2026-05-07 14:23 46.11988 7.30230 35996 ft 478 kts 27°
2026-05-07 14:23 46.17721 7.35115 35992 ft 478 kts 27°
2026-05-07 14:24 46.23408 7.39967 35996 ft 478 kts 27°
2026-05-07 14:24 46.29122 7.44861 36001 ft 477 kts 27°
2026-05-07 14:25 46.34838 7.49765 36007 ft 477 kts 27°
2026-05-07 14:25 46.40542 7.54662 36010 ft 476 kts 27°
2026-05-07 14:26 46.46240 7.59570 36026 ft 476 kts 27°
2026-05-07 14:26 46.51925 7.64492 36035 ft 476 kts 27°
2026-05-07 14:27 46.57607 7.69438 36038 ft 476 kts 27°
2026-05-07 14:27 46.63331 7.74225 36046 ft 474 kts 24°
2026-05-07 14:28 46.69180 7.78622 36045 ft 473 kts 23°
2026-05-07 14:28 46.75042 7.82947 36044 ft 473 kts 23°
2026-05-07 14:29 46.80841 7.87366 36051 ft 473 kts 24°
2026-05-07 14:29 46.86658 7.91897 36053 ft 473 kts 25°
2026-05-07 14:30 46.92461 7.96424 36046 ft 473 kts 24°
2026-05-07 14:30 46.98265 8.00930 36042 ft 472 kts 24°
2026-05-07 14:31 47.04065 8.05436 36048 ft 472 kts 25°
2026-05-07 14:31 47.09868 8.09954 36051 ft 472 kts 25°
2026-05-07 14:32 47.12697 8.12164 36052 ft 472 kts 25°
2026-05-07 14:32 47.18494 8.16697 36053 ft 472 kts 25°
2026-05-07 14:33 47.24164 8.21154 36050 ft 471 kts 25°
2026-05-07 14:33 47.29849 8.25642 36048 ft 471 kts 25°
2026-05-07 14:34 47.35596 8.30166 36047 ft 471 kts 25°
2026-05-07 14:34 47.41373 8.34720 36049 ft 471 kts 25°
2026-05-07 14:35 47.47142 8.39296 36051 ft 471 kts 25°
2026-05-07 14:35 47.52907 8.43878 36051 ft 470 kts 25°
2026-05-07 14:36 47.58676 8.48471 36052 ft 470 kts 25°
2026-05-07 14:36 47.64438 8.53078 36053 ft 470 kts 26°
2026-05-07 14:37 47.70193 8.57687 36051 ft 470 kts 26°
2026-05-07 14:37 47.78826 8.64611 36051 ft 470 kts 26°
2026-05-07 14:38 47.84575 8.69244 36051 ft 469 kts 26°
2026-05-07 14:38 47.90312 8.73885 36052 ft 469 kts 26°
2026-05-07 14:39 47.96054 8.78535 36056 ft 469 kts 26°
2026-05-07 14:39 48.01752 8.83160 36057 ft 469 kts 26°
2026-05-07 14:40 48.07482 8.87826 36055 ft 469 kts 26°
2026-05-07 14:40 48.13213 8.92498 36051 ft 469 kts 25°
2026-05-07 14:41 48.19307 8.95640 36051 ft 461 kts
2026-05-07 14:41 48.25665 8.96686 36050 ft 459 kts
2026-05-07 14:42 48.32034 8.97647 36047 ft 460 kts
2026-05-07 14:42 48.38396 8.98620 36048 ft 460 kts
2026-05-07 14:43 48.44761 8.99599 36051 ft 459 kts
2026-05-07 14:43 48.51114 9.00565 36049 ft 459 kts
2026-05-07 14:44 48.54301 9.01053 35316 ft 463 kts
2026-05-07 14:44 48.57525 9.01542 34343 ft 468 kts
2026-05-07 14:44 48.60764 9.02035 33365 ft 468 kts
2026-05-07 14:44 48.64004 9.02551 32330 ft 468 kts
2026-05-07 14:45 48.67233 9.03197 31282 ft 469 kts
2026-05-07 14:45 48.70418 9.03947 30235 ft 470 kts
2026-05-07 14:45 48.73653 9.04779 29085 ft 470 kts
2026-05-07 14:45 48.76864 9.05627 28028 ft 468 kts
2026-05-07 14:46 48.80063 9.06459 27095 ft 465 kts
2026-05-07 14:46 48.83236 9.07259 26279 ft 460 kts
2026-05-07 14:46 48.86377 9.08026 25501 ft 455 kts
2026-05-07 14:46 48.89490 9.08738 24758 ft 450 kts
2026-05-07 14:47 48.92579 9.09286 24040 ft 445 kts
2026-05-07 14:47 48.95648 9.09704 23317 ft 440 kts
2026-05-07 14:47 48.98687 9.10059 22551 ft 436 kts
2026-05-07 14:47 49.01698 9.10407 21852 ft 432 kts
2026-05-07 14:48 49.04683 9.10771 21165 ft 428 kts
2026-05-07 14:48 49.07635 9.11163 20530 ft 425 kts
2026-05-07 14:48 49.10566 9.11575 19897 ft 421 kts
2026-05-07 14:48 49.13468 9.11995 19288 ft 418 kts
2026-05-07 14:49 49.16352 9.12417 18704 ft 414 kts
2026-05-07 14:49 49.19207 9.12834 18116 ft 411 kts
2026-05-07 14:49 49.22043 9.13249 17512 ft 407 kts
2026-05-07 14:49 49.24813 9.13651 16933 ft 404 kts
2026-05-07 14:50 49.27599 9.14055 16375 ft 400 kts
2026-05-07 14:50 49.30328 9.14839 15831 ft 398 kts 11°
2026-05-07 14:50 49.33014 9.15789 15296 ft 394 kts 11°
2026-05-07 14:50 49.35670 9.16733 14781 ft 391 kts 12°
2026-05-07 14:51 49.38308 9.17671 14268 ft 387 kts 12°
2026-05-07 14:51 49.40920 9.18600 13738 ft 384 kts 11°
2026-05-07 14:51 49.43523 9.19062 13426 ft 371 kts 356°
2026-05-07 14:51 49.46012 9.18415 13157 ft 358 kts 341°
2026-05-07 14:52 49.48342 9.17163 12898 ft 353 kts 339°
2026-05-07 14:52 49.49870 9.16320 12722 ft 352 kts 339°
2026-05-07 14:52 49.52163 9.15039 12381 ft 348 kts 339°
2026-05-07 14:52 49.54425 9.13769 11886 ft 345 kts 339°
2026-05-07 14:53 49.56676 9.12504 11324 ft 344 kts 339°
2026-05-07 14:53 49.58917 9.11243 10803 ft 341 kts 339°
2026-05-07 14:53 49.61140 9.09994 10303 ft 339 kts 339°
2026-05-07 14:53 49.63355 9.08755 10073 ft 339 kts 339°
2026-05-07 14:54 49.65570 9.07519 10049 ft 339 kts 339°
2026-05-07 14:54 49.67794 9.06276 10050 ft 340 kts 339°
2026-05-07 14:54 49.70013 9.05033 10050 ft 339 kts 339°
2026-05-07 14:54 49.72233 9.03787 10059 ft 339 kts 339°
2026-05-07 14:55 49.74446 9.02544 10016 ft 337 kts 339°
2026-05-07 14:55 49.76642 9.01310 9463 ft 334 kts 339°
2026-05-07 14:55 49.78817 9.00089 8900 ft 332 kts 339°
2026-05-07 14:55 49.80982 8.98872 8362 ft 329 kts 339°
2026-05-07 14:56 49.83121 8.97665 7836 ft 326 kts 339°
2026-05-07 14:56 49.85240 8.96465 7305 ft 323 kts 339°
2026-05-07 14:56 49.87340 8.95273 6794 ft 320 kts 339°
2026-05-07 14:56 49.89421 8.94092 6269 ft 317 kts 339°
2026-05-07 14:57 49.91488 8.92922 5726 ft 315 kts 339°
2026-05-07 14:57 49.93576 8.91941 5177 ft 313 kts 346°
2026-05-07 14:57 49.95721 8.91434 4638 ft 311 kts 354°
2026-05-07 14:57 49.97880 8.91389 4131 ft 309 kts
2026-05-07 14:58 49.99961 8.92141 3994 ft 311 kts 27°
2026-05-07 14:58 50.01541 8.94419 4011 ft 315 kts 57°
2026-05-07 14:58 50.02167 8.97545 4007 ft 296 kts 86°
2026-05-07 14:58 50.02249 9.00637 4007 ft 276 kts 78°
2026-05-07 14:59 50.02960 9.03233 4004 ft 252 kts 49°
2026-05-07 14:59 50.04281 9.04778 4007 ft 229 kts 17°
2026-05-07 14:59 50.05804 9.04969 4011 ft 219 kts 349°
2026-05-07 14:59 50.07295 9.04476 4011 ft 219 kts 345°
2026-05-07 15:00 50.08722 9.03760 4011 ft 218 kts 328°
2026-05-07 15:00 50.09747 9.02080 4012 ft 217 kts 295°
2026-05-07 15:00 50.10232 8.99846 4010 ft 219 kts 285°
2026-05-07 15:00 50.10597 8.97542 4012 ft 219 kts 284°
2026-05-07 15:01 50.10946 8.95224 4013 ft 219 kts 284°
2026-05-07 15:01 50.11290 8.92908 4015 ft 219 kts 284°
2026-05-07 15:01 50.11439 8.90557 4012 ft 220 kts 264°
2026-05-07 15:01 50.11014 8.88258 4008 ft 222 kts 251°
2026-05-07 15:02 50.10477 8.85997 3980 ft 223 kts 251°
2026-05-07 15:02 50.09941 8.83733 3770 ft 222 kts 251°
2026-05-07 15:02 50.09409 8.81475 3495 ft 221 kts 251°
2026-05-07 15:02 50.08879 8.79228 3204 ft 220 kts 251°
2026-05-07 15:03 50.08365 8.77051 2904 ft 209 kts 251°
2026-05-07 15:03 50.07875 8.74980 2633 ft 199 kts 251°
2026-05-07 15:03 50.07472 8.73022 2522 ft 184 kts 259°
2026-05-07 15:03 50.07248 8.71099 2317 ft 178 kts 262°
2026-05-07 15:04 50.06985 8.69227 2098 ft 177 kts 256°
2026-05-07 15:04 50.06571 8.67422 1808 ft 176 kts 251°
2026-05-07 15:04 50.06160 8.65651 1485 ft 176 kts 253°
2026-05-07 15:04 50.05753 8.63874 1187 ft 170 kts 250°
2026-05-07 15:05 50.05360 8.62240 945 ft 154 kts 251°
2026-05-07 15:05 50.05003 8.60734 722 ft 143 kts 248°
2026-05-07 15:05 50.04662 8.59325 524 ft 137 kts 249°
2026-05-07 15:05 50.04334 8.57955 366 ft 128 kts 249°
2026-05-07 15:06 50.04088 8.56920 363 ft 77 kts 250°
2026-05-07 15:06 50.03987 8.56429 353 ft 32 kts 270°
2026-05-07 15:06 50.04012 8.56197 358 ft 11 kts 280°
2026-05-07 15:06 50.04019 8.56137 350 ft 0 kts 280°
2026-05-07 15:07 50.04050 8.56119 352 ft 10 kts
2026-05-07 15:08 50.04108 8.56200 360 ft 11 kts 68°
2026-05-07 15:08 50.04141 8.56335 359 ft 14 kts 70°
2026-05-07 15:08 50.04172 8.56468 357 ft 13 kts 70°
2026-05-07 15:08 50.04210 8.56624 359 ft 16 kts 70°
2026-05-07 15:09 50.04244 8.56767 360 ft 12 kts 63°
2026-05-07 15:09 50.04311 8.56816 360 ft 11 kts 11°
2026-05-07 15:09 50.04381 8.56838 360 ft 11 kts 11°
2026-05-07 15:09 50.04453 8.56860 361 ft 10 kts 25°
2026-05-07 15:10 50.04450 8.56931 366 ft 7 kts 152°
2026-05-07 15:10 50.04409 8.56953 362 ft 5 kts 160°
2026-05-07 15:10 50.04382 8.56969 360 ft 3 kts 160°
2026-05-07 15:10 50.04379 8.56971 360 ft 0 kts 160°